Tampa, FL

6:58 AM EDT on August 30, 2016 (GMT -0400)
MacDill Air Force Base

Weather History for KMCF - January, 2013

Change the Weather History Date:

Wednesday, January 2, 2013

  Actual Average Record
Temperature  
Mean Temperature 66 °F -  
Max Temperature 76 °F 68 °F 82 °F (1999)
Min Temperature 57 °F 50 °F 34 °F (2008)
Cooling Degree Days 2    
Growing Degree Days 16 (Base 50)    
Moisture  
Dew Point 63 °F    
Average Humidity 97    
Maximum Humidity 100    
Minimum Humidity 78    
Precipitation  
Precipitation 0.00 in - - ()
Sea Level Pressure  
Sea Level Pressure 30.07 in    
Wind  
Wind Speed 2 mph (West)    
Max Wind Speed 13 mph    
Max Gust Speed -    
Visibility 4 miles    
Events Fog    
Averages and records for this station are not official NWS values.
T = Trace of Precipitation, MM = Missing Value Source: NWS Daily Summary

Daily Weather History Graph

Daily Weather History Graph

Search for Another Location

Airport or City:

Trip Planner

Search our weather history database for the weather conditions in past years. The results will help you decide how hot, cold, wet, or windy it might be!

Date:

Astronomy

Jan. 02, 2013 Rise Set
Actual Time 7:21 AM EST 5:47 PM EST
Civil Twilight 6:55 AM EST 6:12 PM EST
Nautical Twilight 6:26 AM EST 6:41 PM EST
Astronomical Twilight 5:58 AM EST 7:10 PM EST
Moon 10:48 PM EST (1/2) 10:30 AM EST (1/2)
Length of Visible Light 11h 16m
Length of Day
10h 25m
Waning Gibbous, 75% of the Moon is Illuminated
Jan 2
Waning Gibbous
Jan 4
Last Quarter
Jan 11
New
Jan 18
First Quarter
Jan 26
Full

Hourly Weather History & Observations

Time (EST) Temp. Dew Point Humidity Pressure Visibility Wind Dir Wind Speed Gust Speed Precip Events Conditions
12:55 AM 60.4 °F 60.3 °F 99% 30.05 in 10.0 mi Calm Calm - N/A   Clear
1:55 AM 58.3 °F 58.1 °F 99% 30.04 in 10.0 mi Calm Calm - N/A   Clear
2:31 AM 57.2 °F 57.2 °F 100% 30.04 in 9.0 mi Calm Calm - N/A   Scattered Clouds
2:35 AM 57.2 °F 57.2 °F 100% 30.04 in 9.0 mi Calm Calm - N/A   Mostly Cloudy
2:55 AM 57.7 °F 57.4 °F 99% 30.04 in 10.0 mi Calm Calm - N/A   Mostly Cloudy
3:55 AM 58.6 °F 58.3 °F 99% 30.04 in 10.0 mi Calm Calm - N/A   Clear
4:55 AM 61.7 °F 61.7 °F 100% 30.04 in 10.0 mi South 6.9 mph - N/A   Clear
5:55 AM 62.2 °F 62.2 °F 100% 30.04 in 10.0 mi SSW 5.8 mph - N/A   Partly Cloudy
6:55 AM 62.2 °F 62.2 °F 100% 30.06 in 10.0 mi Calm Calm - N/A   Partly Cloudy
7:55 AM 62.2 °F 62.2 °F 100% 30.06 in 10.0 mi South 4.6 mph - N/A   Partly Cloudy
8:55 AM 64.0 °F 64.0 °F 100% 30.08 in 10.0 mi South 6.9 mph - N/A   Clear
9:55 AM 68.4 °F 68.4 °F 100% 30.09 in 10.0 mi West 8.1 mph - N/A   Partly Cloudy
10:55 AM 72.1 °F 68.2 °F 87% 30.08 in 10.0 mi West 9.2 mph - N/A   Clear
11:55 AM 75.0 °F 69.6 °F 83% 30.07 in 10.0 mi West 12.7 mph - N/A   Clear
12:55 PM 76.6 °F 69.6 °F 79% 30.04 in 10.0 mi West 12.7 mph - N/A   Clear
1:55 PM 76.8 °F 69.6 °F 78% 30.03 in 10.0 mi WNW 12.7 mph - N/A   Clear
2:55 PM 75.9 °F 68.9 °F 79% 30.01 in 10.0 mi West 12.7 mph - N/A   Clear
3:55 PM 73.4 °F 68.7 °F 85% 30.03 in 10.0 mi West 9.2 mph - N/A   Clear
4:55 PM 71.6 °F 67.6 °F 87% 30.03 in 10.0 mi NW 6.9 mph - N/A   Clear
5:55 PM 68.4 °F 66.6 °F 94% 30.04 in 10.0 mi NW 4.6 mph - N/A   Clear
6:55 PM 66.0 °F 64.8 °F 96% 30.05 in 10.0 mi Calm Calm - N/A   Clear
7:55 PM 63.5 °F 63.3 °F 99% 30.06 in 6.0 mi Calm Calm - N/A   Partly Cloudy
8:55 PM 63.7 °F 63.3 °F 99% 30.08 in 10.0 mi Calm Calm - N/A   Overcast
9:04 PM 64.4 °F 62.6 °F 94% 30.08 in 8.0 mi Calm Calm - N/A   Overcast
9:18 PM 64.4 °F 62.6 °F 94% 30.08 in 8.0 mi Calm Calm - N/A   Overcast
9:54 PM 64.4 °F 64.4 °F 100% 30.09 in 2.5 mi Calm Calm - N/A   Mostly Cloudy
9:55 PM 63.5 °F 63.5 °F 100% 30.09 in 1.8 mi Calm Calm - N/A   Mostly Cloudy
9:56 PM 64.4 °F 64.4 °F 100% 30.09 in 1.5 mi Calm Calm - N/A   Overcast
9:57 PM 64.4 °F 64.4 °F 100% 30.09 in 1.2 mi Calm Calm - N/A   Overcast
9:58 PM 64.4 °F 64.4 °F 100% 30.09 in 1.0 mi Calm Calm - N/A   Overcast
9:59 PM 64.4 °F 64.4 °F 100% 30.09 in 0.8 mi Calm Calm - N/A   Overcast
10:02 PM 62.6 °F 62.6 °F 100% 30.09 in 0.8 mi Calm Calm - N/A   Overcast
10:03 PM 62.6 °F 62.6 °F 100% 30.09 in 1.0 mi Calm Calm - N/A   Overcast
10:06 PM 62.6 °F 62.6 °F 100% 30.09 in 1.2 mi Calm Calm - N/A   Overcast
10:07 PM 62.6 °F 62.6 °F 100% 30.09 in 1.5 mi Calm Calm - N/A   Overcast
10:09 PM 62.6 °F 62.6 °F 100% 30.09 in 2.0 mi Calm Calm - N/A   Overcast
10:10 PM 62.6 °F 62.6 °F 100% 30.09 in 1.8 mi Calm Calm - N/A   Overcast
10:12 PM 62.6 °F 62.6 °F 100% 30.09 in 1.2 mi Calm Calm - N/A   Overcast
10:19 PM 62.6 °F 62.6 °F 100% 30.09 in 1.5 mi Calm Calm - N/A   Overcast
10:21 PM 62.6 °F 62.6 °F 100% 30.09 in 2.0 mi Calm Calm - N/A   Overcast
10:26 PM 62.6 °F 62.6 °F 100% 30.09 in 3.0 mi Calm Calm - N/A   Overcast
10:27 PM 62.6 °F 62.6 °F 100% 30.09 in 3.0 mi Calm Calm - N/A   Overcast
10:43 PM 62.6 °F 62.6 °F 100% 30.09 in 1.8 mi Calm Calm - N/A   Scattered Clouds
10:45 PM 62.6 °F 62.6 °F 100% 30.09 in 1.2 mi Calm Calm - N/A   Scattered Clouds
10:52 PM 62.6 °F 62.6 °F 100% 30.09 in 1.5 mi Calm Calm - N/A   Partly Cloudy
10:53 PM 62.6 °F 62.6 °F 100% 30.09 in 2.5 mi Calm Calm - N/A   Partly Cloudy
10:54 PM 62.6 °F 60.8 °F 94% 30.09 in 4.0 mi Calm Calm - N/A   Clear
10:55 PM 61.9 °F 61.5 °F 99% 30.08 in 5.0 mi Calm Calm - N/A   Clear
10:57 PM 62.6 °F 60.8 °F 94% 30.09 in 2.0 mi Calm Calm - N/A   Clear
10:58 PM 62.6 °F 60.8 °F 94% 30.09 in 1.5 mi Calm Calm - N/A   Clear
10:59 PM 60.8 °F 60.8 °F 100% 30.09 in 1.2 mi Calm Calm - N/A   Clear
11:00 PM 60.8 °F 60.8 °F 100% 30.08 in 1.0 mi Calm Calm - N/A   Clear
11:01 PM 60.8 °F 60.8 °F 100% 30.08 in 0.8 mi Calm Calm - N/A   Clear
11:04 PM 60.8 °F 60.8 °F 100% 30.08 in 0.5 mi Calm Calm - N/A Fog Fog
11:05 PM 60.8 °F 60.8 °F 100% 30.08 in 0.5 mi Calm Calm - N/A Fog Fog
11:12 PM 60.8 °F 60.8 °F 100% 30.08 in 0.2 mi Calm Calm - N/A Fog Fog
11:24 PM 60.8 °F 60.8 °F 100% 30.08 in 0.2 mi Calm Calm - N/A Fog Fog
11:26 PM 60.8 °F 60.8 °F 100% 30.09 in 0.2 mi Calm Calm - N/A Fog Fog
11:27 PM 60.8 °F 60.8 °F 100% 30.08 in 0.2 mi Calm Calm - N/A Fog Fog
11:28 PM 60.8 °F 60.8 °F 100% 30.08 in 0.2 mi Calm Calm - N/A Fog Fog
11:34 PM 60.8 °F 60.8 °F 100% 30.08 in 0.5 mi Calm Calm - N/A Fog Fog
11:41 PM 60.8 °F 60.8 °F 100% 30.08 in 0.5 mi Calm Calm - N/A Fog Fog
11:47 PM 60.8 °F 60.8 °F 100% 30.08 in 0.5 mi Calm Calm - N/A Fog Fog
11:48 PM 60.8 °F 60.8 °F 100% 30.08 in 0.5 mi Calm Calm - N/A Fog Fog
11:50 PM 60.8 °F 60.8 °F 100% 30.08 in 0.2 mi Calm Calm - N/A Fog Fog
11:55 PM 61.2 °F 61.2 °F 100% 30.08 in 0.2 mi Calm Calm - N/A Fog Fog